Lexington Weather

Lexington, Massachusetts, USA

73°F
8/7/2020 11:21am 
  • Lexington Conditions: Clear
  • Temperature: 72.7°F / 22.6°CWarmer 2.7°F than last hour.
  • Dew Point: 63.9°FIncreased 1.5°Fsince last hour.
  • Relative Humidity: 74%Decreased 3.0% since last hour.
  • Wind: Calm, 10-min avg: Calm, gust: 2 mph
  • Barometer: 30.14 in Steady
  • Visibility: 10 miles
  • Rain Today: 0.00 in
  •   

Regional Weather Roundup
for Boston / Norton, MA

        
000
ASUS41 KBOX 040404
RWRBOX

REGIONAL WEATHER ROUNDUP
NATIONAL WEATHER SERVICE BOSTON/NORTON MA
1200 AM EDT TUE AUG 04 2020

NOTE:  "FAIR" INDICATES FEW OR NO CLOUDS BELOW 12,000 FEET WITH NO 
SIGNIFICANT WEATHER AND/OR OBSTRUCTIONS TO VISIBILITY.

MAZALL-040500-
EASTERN MASSACHUSETTS
  
CITY           SKY/WX    TMP DP  RH WIND       PRES   REMARKS
BOSTON         MOCLDY    76  63  64 SE6       30.08R                  
BEVERLY        MOCLDY    75  62  64 CALM      30.06R                  
LAWRENCE       MOCLDY    74  63  68 CALM      30.09R                  
BEDFORD        MOCLDY    72  66  81 CALM      30.06R                  
BLUE HILL      NOT AVBL                                               
NORWOOD        MOCLDY    75  66  73 CALM      30.08R                  
MARSHFIELD     MOCLDY    79  70  73 SW3       30.08R                  
PLYMOUTH       MOCLDY    77  69  76 SW9       30.09R                  
TAUNTON        MOCLDY    78  69  73 S3        30.08R                  
NEW BEDFORD    MOCLDY    77  71  82 W5        30.08S                  
$$

MAZALL-040500-
CAPE COD AND THE ISLANDS
  
CITY           SKY/WX    TMP DP  RH WIND       PRES   REMARKS
FALMOUTH       MOCLDY    77  75  94 SW14      30.09R                  
HYANNIS        PTCLDY    78  73  84 SW10      30.08R                  
CHATHAM        MOCLDY    78  74  87 SW8G21    30.10R                  
PROVINCETOWN   PTCLDY    73  69  87 W5        30.09R                  
NANTUCKET      CLOUDY    74  73  97 SW10      30.10R FOG              
MARTHAS VNYRD  MOCLDY    78  76  93 W7        30.09S                  
$$
 
MAZALL-040500-
CENTRAL AND WESTERN MASSACHUSETTS
  
CITY           SKY/WX    TMP DP  RH WIND       PRES   REMARKS
WORCESTER      MOCLDY    73  64  73 SW6       30.12R                  
FITCHBURG      MOCLDY    71  64  78 CALM      30.09R                  
ORANGE         MOCLDY    70  67  90 CALM      30.10R                  
SPRINGFIELD    CLOUDY    72  69  90 S3        30.07R                  
WESTFIELD      CLOUDY    74  68  81 CALM      30.08R                  
NORTH ADAMS    NOT AVBL                                               
PITTSFIELD     CLOUDY    69  65  86 CALM      30.09S                  
$$
 
RIZALL-040500-
RHODE ISLAND
  
CITY           SKY/WX    TMP DP  RH WIND       PRES   REMARKS
PROVIDENCE     CLOUDY    79  71  76 SW8       30.08S                  
NEWPORT        CLOUDY    77  73  87 CALM      30.07F                  
BLOCK ISLAND   CLOUDY    75  73  93 SW10      30.08F                  
SMITHFIELD     MOCLDY    76  70  82 W3        30.10S                  
WESTERLY       CLOUDY    77  73  87 CALM      30.07F                  
$$
 
CTZALL-040500-
CONNECTICUT
  
CITY           SKY/WX    TMP DP  RH WIND       PRES   REMARKS
BRADLEY INTL   LGT RAIN  79  68  69 SW17      30.08R                  
HARTFORD       LGT RAIN  77  70  79 W8G21     30.07R                  
BRIDGEPORT     CLOUDY    73  68  84 N6        30.03F                  
DANBURY        CLOUDY    70  69  97 CALM      30.06F                  
GROTON         CLOUDY    79  73  82 NW6       30.06F                  
NEW HAVEN      CLOUDY    75  70  84 CALM      30.05F                  
CHESTER        FAIR      75  72  88 VRB3      30.07F                  
MERIDEN        LGT RAIN  72  68  87 NW6       30.04F                  
WILLIMANTIC    CLOUDY    77  70  79 W3        30.07F                  
OXFORD         CLOUDY    69  67  93 NE3       30.07F                  
$$

MEZ002-015-021-024-NHZ003-005-008-011-012-014-VTZ005-008-040500-
NORTHERN NEW ENGLAND
  
CITY           SKY/WX    TMP DP  RH WIND       PRES   REMARKS
PORTLAND ME    MOCLDY    74  61  63 CALM      30.06R                  
BANGOR ME      MOCLDY    70  60  70 W6        30.04R                  
CONCORD NH     MOCLDY    68  61  78 CALM      30.07R                  
MANCHESTER NH  MOCLDY    76  61  59 S3        30.06R                  
NASHUA NH      MOCLDY    73  65  75 CALM      30.08R                  
PORTSMOUTH NH  CLOUDY    72  62  71 CALM      30.05R                  
JAFFREY NH     MOCLDY    68  62  81 CALM      30.12R                  
KEENE NH       MOCLDY    67  64  90 CALM      30.09R                  
BURLINGTON VT  PTCLDY    67  62  84 NE5       30.04S                  
MT. WASHINGTON NOT AVBL                                               
$$

NYZ052-076-040500-
EASTERN NEW YORK
  
CITY           SKY/WX    TMP DP  RH WIND       PRES   REMARKS
ALBANY         CLOUDY    72  62  71 CALM      30.04S                  
NEW YORK CITY  CLOUDY    76  69  79 E7        30.03F                  
$$
 
ANZALL-040500-
MARINE OBSERVATIONS
  
STATION/POSITION TIME  TEMP    WIND        PRES    VSBY  WAVE
                       AIR SEA DIR/SP/G                  HT/PER
                 (UTC) (F)     (DEG/KT/KT) (MB)    (MI)  (FT/S)
BOSTON BUOY      0350   74 71  180/  8/  8 1017.0R         1/ 9
BUZZARDS BAY     0300          230/ 17/ 18 1019.8R
NANTUCKET SOUND  0340      77  250/ 14/ 16 1018.3R
MASS BAY-STELLWA 0304   73     290/  2/  4 1015.5R  1 7/8  2/ 5
ISLE OF SHOALS   0300   77     300/  6/  6 1016.9R
S OF BLOCK IS    0326      74                N/A           4/ 7
$$

......................KEY.........................
  SKY/WX - SKY CONDITION/PRESENT WEATHER
  TMP    - TEMPERATURE IN FAHRENHEIT
  DWPT   - DEWPOINT IN FAHRENHEIT
  RH     - RELATIVE HUMIDITY IN PERCENT
  WIND   - DIRECTION AND SPEED IN MPH
  PRES   - MEAN SEA LEVEL PRESSURE IN INCHES OF HG
  WCI    - WIND CHILL INDEX
  VSB    - VISIBILITY IN MILES
  HX     - HEAT INDEX
  TC     - TEMPERATURE IN CELSIUS
  VRB    - VARIABLE WIND DIRECTION
  N/A    - NOT AVAILABLE
  
      

Other recent Regional Weather Roundups

Fri Aug 7, 11:04am

Fri Aug 7, 10:04am

Fri Aug 7, 9:04am

Fri Aug 7, 8:04am

Fri Aug 7, 7:04am

Fri Aug 7, 6:04am

Fri Aug 7, 5:04am

Fri Aug 7, 4:04am

Fri Aug 7, 3:04am

Fri Aug 7, 2:04am

Fri Aug 7, 1:05am

Fri Aug 7, 12:04am

Thu Aug 6, 11:04pm

Thu Aug 6, 10:04pm

Thu Aug 6, 9:04pm

Thu Aug 6, 8:04pm

Thu Aug 6, 7:04pm

Thu Aug 6, 6:04pm

Thu Aug 6, 5:04pm

Thu Aug 6, 4:05pm

Thu Aug 6, 3:04pm

Thu Aug 6, 2:05pm

Thu Aug 6, 1:04pm

Thu Aug 6, 12:04pm

Thu Aug 6, 11:04am

Thu Aug 6, 10:04am

Thu Aug 6, 9:04am

Thu Aug 6, 8:04am

Thu Aug 6, 7:04am

Thu Aug 6, 6:04am

Thu Aug 6, 5:04am

Thu Aug 6, 4:04am

Thu Aug 6, 3:04am

Thu Aug 6, 2:05am

Thu Aug 6, 1:04am

Thu Aug 6, 12:04am

Wed Aug 5, 11:04pm

Wed Aug 5, 10:04pm

Wed Aug 5, 9:04pm

Wed Aug 5, 8:05pm

Wed Aug 5, 7:04pm

Wed Aug 5, 6:04pm

Wed Aug 5, 5:04pm

Wed Aug 5, 4:05pm

Wed Aug 5, 3:04pm

Wed Aug 5, 2:04pm

Wed Aug 5, 1:04pm

Wed Aug 5, 12:04pm

Wed Aug 5, 11:04am

Wed Aug 5, 10:04am

Wed Aug 5, 9:04am

Wed Aug 5, 8:04am

Wed Aug 5, 7:04am

Wed Aug 5, 6:04am

Wed Aug 5, 5:04am

Wed Aug 5, 4:04am

Wed Aug 5, 3:04am

Wed Aug 5, 2:05am

Wed Aug 5, 1:04am

Wed Aug 5, 12:05am

Tue Aug 4, 11:05pm

Tue Aug 4, 10:05pm

Tue Aug 4, 9:04pm

Tue Aug 4, 8:04pm

Tue Aug 4, 7:05pm

Tue Aug 4, 6:05pm

Tue Aug 4, 5:05pm

Tue Aug 4, 4:05pm

Tue Aug 4, 3:04pm

Tue Aug 4, 2:05pm

Tue Aug 4, 1:04pm

Tue Aug 4, 12:05pm

Tue Aug 4, 11:04am

Tue Aug 4, 10:04am

Tue Aug 4, 9:04am

Tue Aug 4, 8:04am

Tue Aug 4, 7:04am

Tue Aug 4, 6:04am

Tue Aug 4, 5:04am

Tue Aug 4, 4:04am

Tue Aug 4, 3:04am

Tue Aug 4, 2:04am

Tue Aug 4, 1:04am

Mon Aug 3, 11:04pm

Mon Aug 3, 10:04pm

Mon Aug 3, 9:04pm

Mon Aug 3, 8:05pm

Mon Aug 3, 7:04pm

Mon Aug 3, 6:04pm

Mon Aug 3, 5:04pm

Mon Aug 3, 4:05pm

Mon Aug 3, 3:04pm

Mon Aug 3, 2:04pm

Mon Aug 3, 1:04pm

Mon Aug 3, 12:05pm

Mon Aug 3, 11:04am

Mon Aug 3, 10:04am

Mon Aug 3, 9:05am

Mon Aug 3, 8:04am

Mon Aug 3, 7:04am

Mon Aug 3, 6:04am

Mon Aug 3, 5:04am

Mon Aug 3, 4:04am

Mon Aug 3, 3:04am

Mon Aug 3, 2:04am

Mon Aug 3, 1:04am

Mon Aug 3, 12:05am

Sun Aug 2, 11:04pm

Sun Aug 2, 10:04pm

Sun Aug 2, 9:04pm

Sun Aug 2, 8:04pm

Sun Aug 2, 7:04pm

Sun Aug 2, 6:04pm

Sun Aug 2, 5:04pm

Sun Aug 2, 4:05pm

Sun Aug 2, 3:04pm

Sun Aug 2, 2:05pm

Sun Aug 2, 1:04pm

Sun Aug 2, 12:04pm

Sun Aug 2, 11:04am

Sun Aug 2, 10:04am

Sun Aug 2, 9:05am

Sun Aug 2, 8:05am

Sun Aug 2, 7:04am

Sun Aug 2, 6:04am

Sun Aug 2, 5:04am

Sun Aug 2, 4:05am

Sun Aug 2, 3:04am

Sun Aug 2, 2:04am

Sun Aug 2, 1:04am

Sun Aug 2, 12:05am

Sat Aug 1, 11:04pm

Sat Aug 1, 10:04pm

Sat Aug 1, 9:04pm

Sat Aug 1, 8:05pm

Sat Aug 1, 7:04pm

Sat Aug 1, 6:04pm

Sat Aug 1, 5:05pm

Sat Aug 1, 4:05pm

Sat Aug 1, 3:04pm

Sat Aug 1, 2:04pm

Sat Aug 1, 1:04pm

Sat Aug 1, 12:04pm

Sat Aug 1, 11:05am

Sat Aug 1, 10:05am

Sat Aug 1, 9:04am

Sat Aug 1, 8:04am

Sat Aug 1, 7:04am

Sat Aug 1, 6:04am

Sat Aug 1, 5:04am

Sat Aug 1, 4:05am

Sat Aug 1, 3:04am

Sat Aug 1, 2:04am

Sat Aug 1, 1:04am

Sat Aug 1, 12:05am

Fri Jul 31, 11:05pm

Fri Jul 31, 10:04pm

Fri Jul 31, 9:04pm

Fri Jul 31, 8:05pm

Fri Jul 31, 7:05pm

Fri Jul 31, 6:04pm

Fri Jul 31, 5:04pm

Fri Jul 31, 4:05pm

Fri Jul 31, 3:04pm

Fri Jul 31, 2:05pm

Fri Jul 31, 1:04pm

Fri Jul 31, 12:04pm

Meta data:

ID: fae22ab2-e514-4993-9234-a591178bf3f8
Link: https://api.weather.gov/products/fae22ab2-e514-4993-9234-a591178bf3f8